TimeEST,TemperatureF,Dew PointF,Humidity,Sea Level PressureIn,VisibilityMPH,Wind Direction,Wind SpeedMPH,Gust SpeedMPH,PrecipitationIn,Events,Conditions,WindDirDegrees,DateUTC
12:15 AM,39.2,39.2,100,30.06,10.0,Calm,Calm,-,N/A,,Clear,0,2012-12-19 05:15:00
12:35 AM,39.2,39.2,100,30.05,8.0,Calm,Calm,-,N/A,,Clear,0,2012-12-19 05:35:00
12:55 AM,39.2,39.2,100,30.06,10.0,Calm,Calm,-,N/A,,Clear,0,2012-12-19 05:55:00
1:15 AM,37.4,37.4,100,30.05,7.0,Calm,Calm,-,N/A,,Clear,0,2012-12-19 06:15:00
1:35 AM,37.4,37.4,100,30.06,8.0,Calm,Calm,-,N/A,,Clear,0,2012-12-19 06:35:00
1:55 AM,37.4,37.4,100,30.07,7.0,Calm,Calm,-,N/A,,Clear,0,2012-12-19 06:55:00
2:15 AM,37.4,37.4,100,30.06,7.0,Calm,Calm,-,N/A,,Clear,0,2012-12-19 07:15:00
2:35 AM,35.6,35.6,100,30.07,7.0,Calm,Calm,-,N/A,,Clear,0,2012-12-19 07:35:00
2:55 AM,35.6,35.6,100,30.07,7.0,Calm,Calm,-,N/A,,Clear,0,2012-12-19 07:55:00
3:15 AM,35.6,35.6,100,30.07,10.0,Calm,Calm,-,N/A,,Clear,0,2012-12-19 08:15:00
3:35 AM,35.6,35.6,100,30.07,8.0,Calm,Calm,-,N/A,,Clear,0,2012-12-19 08:35:00
3:55 AM,35.6,35.6,100,30.07,10.0,Calm,Calm,-,N/A,,Clear,0,2012-12-19 08:55:00
4:15 AM,35.6,35.6,100,30.07,10.0,Calm,Calm,-,N/A,,Clear,0,2012-12-19 09:15:00
4:35 AM,35.6,35.6,100,30.06,7.0,Calm,Calm,-,N/A,,Clear,0,2012-12-19 09:35:00
4:55 AM,33.8,33.8,100,30.07,10.0,Calm,Calm,-,N/A,,Clear,0,2012-12-19 09:55:00
5:15 AM,33.8,33.8,100,30.08,10.0,Calm,Calm,-,N/A,,Clear,0,2012-12-19 10:15:00
5:35 AM,33.8,33.8,100,30.08,10.0,Calm,Calm,-,N/A,,Clear,0,2012-12-19 10:35:00
5:55 AM,33.8,33.8,100,30.09,8.0,Calm,Calm,-,N/A,,Clear,0,2012-12-19 10:55:00
6:15 AM,32.0,32.0,100,30.09,10.0,Calm,Calm,-,N/A,,Clear,0,2012-12-19 11:15:00
6:35 AM,32.0,32.0,100,30.10,10.0,Calm,Calm,-,N/A,,Clear,0,2012-12-19 11:35:00
6:50 AM,32.0,32.0,100,30.10,10.0,Calm,Calm,-,N/A,,Clear,0,2012-12-19 11:50:00
7:50 AM,32.0,32.0,100,30.12,10.0,Calm,Calm,-,N/A,,Clear,0,2012-12-19 12:50:00
9:50 AM,55.4,44.6,67,30.15,10.0,Calm,Calm,-,N/A,,Clear,0,2012-12-19 14:50:00
10:50 AM,62.6,44.6,52,30.15,10.0,Calm,Calm,-,N/A,,Clear,0,2012-12-19 15:50:00
11:50 AM,66.2,39.2,37,30.14,10.0,Calm,Calm,-,N/A,,Clear,0,2012-12-19 16:50:00
12:50 PM,68.0,37.4,33,30.11,10.0,Calm,Calm,-,N/A,,Clear,0,2012-12-19 17:50:00
1:50 PM,69.8,39.2,33,30.10,10.0,Calm,Calm,-,N/A,,Clear,0,2012-12-19 18:50:00
2:50 PM,71.6,35.6,27,30.08,10.0,Calm,Calm,-,N/A,,Clear,0,2012-12-19 19:50:00
3:50 PM,71.6,35.6,27,30.09,10.0,Calm,Calm,-,N/A,,Clear,0,2012-12-19 20:50:00
4:50 PM,68.0,41.0,37,30.05,10.0,Calm,Calm,-,N/A,,Clear,0,2012-12-19 21:50:00
5:50 PM,53.6,48.2,82,30.08,10.0,Calm,Calm,-,N/A,,Clear,0,2012-12-19 22:50:00
6:50 PM,48.2,44.6,87,30.10,10.0,Calm,Calm,-,N/A,,Clear,0,2012-12-19 23:50:00
7:50 PM,44.6,44.6,100,30.11,10.0,Calm,Calm,-,N/A,,Clear,0,2012-12-20 00:50:00
8:15 PM,44.6,44.6,100,30.11,10.0,Calm,Calm,-,N/A,,Clear,0,2012-12-20 01:15:00
8:35 PM,44.6,44.6,100,30.12,10.0,Calm,Calm,-,N/A,,Clear,0,2012-12-20 01:35:00
8:55 PM,42.8,42.8,100,30.12,10.0,Calm,Calm,-,N/A,,Clear,0,2012-12-20 01:55:00
9:15 PM,42.8,42.8,100,30.12,10.0,Calm,Calm,-,N/A,,Clear,0,2012-12-20 02:15:00
9:35 PM,42.8,42.8,100,30.12,10.0,Calm,Calm,-,N/A,,Clear,0,2012-12-20 02:35:00
9:55 PM,41.0,41.0,100,30.12,10.0,Calm,Calm,-,N/A,,Clear,0,2012-12-20 02:55:00
10:15 PM,41.0,41.0,100,30.11,10.0,Calm,Calm,-,N/A,,Clear,0,2012-12-20 03:15:00
10:35 PM,41.0,41.0,100,30.11,10.0,Calm,Calm,-,N/A,,Clear,0,2012-12-20 03:35:00
10:55 PM,41.0,41.0,100,30.11,9.0,Calm,Calm,-,N/A,,Clear,0,2012-12-20 03:55:00
11:15 PM,41.0,41.0,100,30.11,9.0,Calm,Calm,-,N/A,,Clear,0,2012-12-20 04:15:00
11:35 PM,41.0,41.0,100,30.10,9.0,Calm,Calm,-,N/A,,Clear,0,2012-12-20 04:35:00
11:55 PM,41.0,41.0,100,30.10,8.0,Calm,Calm,-,N/A,,Clear,0,2012-12-20 04:55:00